Felix-Klein-Gymnasium, Gttingen, 150m NN
Donnes mto: Actuelle Dienstag, 26.03.2019 09:30
Date Horaire Temp. E. Hum. E. P.atmo. Pluie Vent Direction Direction Ensoleilleme P. de rose Temp au vent Rafales
26.03.2019 09:30 4,9 C 72 % 1026,7 hPa 0,0 mm 10,1 km/h (2 Bft) NE 40 15 min 0,3 C 2,5 C 17,7 km/h (3 Bft)
26.03.2019 09:15 4,7 C 73 % 1026,9 hPa 0,0 mm 9,7 km/h (2 Bft) N-NE 22 0 min 0,3 C 2,4 C 29,0 km/h (5 Bft)
26.03.2019 09:00 4,6 C 73 % 1026,9 hPa 0,0 mm 14,4 km/h (3 Bft) NE 36 0 min 0,2 C 1,4 C 29,0 km/h (5 Bft)
26.03.2019 08:45 4,4 C 72 % 1027,0 hPa 0,0 mm 11,8 km/h (2 Bft) NE 44 0 min -0,2 C 1,6 C 27,4 km/h (4 Bft)
26.03.2019 08:30 4,4 C 72 % 1026,8 hPa 0,0 mm 14,4 km/h (3 Bft) NE 55 0 min -0,2 C 1,1 C 24,1 km/h (4 Bft)
26.03.2019 08:15 4,4 C 73 % 1026,8 hPa 0,0 mm 13,4 km/h (3 Bft) E-NE 58 0 min -0,0 C 1,3 C 27,4 km/h (4 Bft)
26.03.2019 08:00 4,3 C 74 % 1026,6 hPa 0,0 mm 16,3 km/h (3 Bft) NE 56 0 min 0,1 C 0,7 C 30,6 km/h (5 Bft)
26.03.2019 07:45 4,2 C 77 % 1026,5 hPa 0,0 mm 16,0 km/h (3 Bft) NE 37 0 min 0,5 C 0,6 C 33,8 km/h (5 Bft)
26.03.2019 07:30 4,3 C 79 % 1026,4 hPa 0,0 mm 12,9 km/h (3 Bft) NE 44 0 min 1,0 C 1,2 C 27,4 km/h (4 Bft)
26.03.2019 07:15 4,2 C 79 % 1026,3 hPa 0,0 mm 16,3 km/h (3 Bft) E-SE 107 0 min 0,9 C 0,6 C 25,7 km/h (4 Bft)
26.03.2019 07:00 4,2 C 79 % 1026,1 hPa 0,0 mm 17,1 km/h (3 Bft) E-NE 69 0 min 0,9 C 0,4 C 33,8 km/h (5 Bft)
26.03.2019 06:45 4,3 C 81 % 1026,3 hPa 0,0 mm 12,2 km/h (2 Bft) N-NE 23 0 min 1,3 C 1,4 C 27,4 km/h (4 Bft)
26.03.2019 06:30 4,3 C 83 % 1026,1 hPa 0,0 mm 13,6 km/h (3 Bft) N-NE 19 0 min 1,7 C 1,1 C 25,7 km/h (4 Bft)
26.03.2019 06:15 4,2 C 86 % 1026,1 hPa 0,0 mm 9,3 km/h (2 Bft) E-NE 59 0 min 2,1 C 1,9 C 17,7 km/h (3 Bft)
26.03.2019 06:00 4,3 C 88 % 1026,0 hPa 0,0 mm 9,4 km/h (2 Bft) N 5 0 min 2,5 C 2,0 C 20,9 km/h (4 Bft)
26.03.2019 05:45 4,3 C 88 % 1025,8 hPa 0,0 mm 9,0 km/h (2 Bft) E-NE 71 0 min 2,5 C 2,1 C 17,7 km/h (3 Bft)
26.03.2019 05:30 4,3 C 89 % 1025,9 hPa 0,0 mm 8,4 km/h (2 Bft) N-NE 24 0 min 2,7 C 2,2 C 20,9 km/h (4 Bft)
26.03.2019 05:15 4,2 C 89 % 1025,8 hPa 0,0 mm 6,7 km/h (2 Bft) NE 34 0 min 2,6 C 2,6 C 17,7 km/h (3 Bft)
26.03.2019 05:00 4,1 C 89 % 1025,7 hPa 0,0 mm 4,8 km/h (1 Bft) NE 48 0 min 2,5 C 3,1 C 12,9 km/h (3 Bft)
26.03.2019 04:45 4,1 C 89 % 1025,6 hPa 0,0 mm 2,7 km/h (1 Bft) NE 46 0 min 2,5 C 4,1 C 12,9 km/h (3 Bft)
26.03.2019 04:30 4,2 C 89 % 1025,6 hPa 0,0 mm 1,6 km/h (1 Bft) NE 34 0 min 2,6 C 4,2 C 9,7 km/h (2 Bft)
26.03.2019 04:15 4,3 C 88 % 1025,6 hPa 0,0 mm 0,8 km/h (0 Bft) NE 46 0 min 2,5 C 4,3 C 11,3 km/h (2 Bft)
26.03.2019 04:00 4,4 C 88 % 1025,6 hPa 0,0 mm 3,2 km/h (1 Bft) E-NE 60 0 min 2,6 C 4,4 C 11,3 km/h (2 Bft)
26.03.2019 03:45 4,5 C 87 % 1025,6 hPa 0,0 mm 3,5 km/h (1 Bft) NE 50 0 min 2,5 C 4,5 C 12,9 km/h (3 Bft)
26.03.2019 03:30 4,5 C 87 % 1025,6 hPa 0,0 mm 0,3 km/h (0 Bft) NE 53 0 min 2,5 C 4,5 C 6,4 km/h (2 Bft)
26.03.2019 03:15 4,5 C 86 % 1025,5 hPa 0,0 mm 3,9 km/h (1 Bft) E-NE 62 0 min 2,4 C 4,5 C 12,9 km/h (3 Bft)
26.03.2019 03:00 4,4 C 87 % 1025,4 hPa 0,0 mm 6,5 km/h (2 Bft) E-NE 61 0 min 2,4 C 2,9 C 14,5 km/h (3 Bft)
26.03.2019 02:45 4,4 C 87 % 1025,5 hPa 0,0 mm 5,9 km/h (2 Bft) E-NE 68 0 min 2,4 C 3,1 C 12,9 km/h (3 Bft)
26.03.2019 02:30 4,4 C 88 % 1025,5 hPa 0,0 mm 5,7 km/h (1 Bft) NE 44 0 min 2,6 C 3,1 C 14,5 km/h (3 Bft)
26.03.2019 02:15 4,4 C 87 % 1025,3 hPa 0,0 mm 7,0 km/h (2 Bft) E-NE 59 0 min 2,4 C 2,7 C 14,5 km/h (3 Bft)
26.03.2019 02:00 4,6 C 87 % 1025,1 hPa 0,0 mm 2,8 km/h (1 Bft) E-NE 71 0 min 2,6 C 4,6 C 12,9 km/h (3 Bft)
26.03.2019 01:45 4,7 C 88 % 1025,2 hPa 0,0 mm 1,7 km/h (1 Bft) NE 51 0 min 2,9 C 4,7 C 12,9 km/h (3 Bft)
26.03.2019 01:30 4,8 C 87 % 1025,0 hPa 0,0 mm 1,8 km/h (1 Bft) NE 49 0 min 2,8 C 4,8 C 11,3 km/h (2 Bft)
26.03.2019 01:15 4,9 C 87 % 1024,8 hPa 0,0 mm 2,1 km/h (1 Bft) E-NE 78 0 min 2,9 C 4,9 C 11,3 km/h (2 Bft)
26.03.2019 01:00 4,9 C 87 % 1024,9 hPa 0,0 mm 1,8 km/h (1 Bft) E-NE 78 0 min 2,9 C 4,9 C 12,9 km/h (3 Bft)
26.03.2019 00:45 4,8 C 87 % 1024,8 hPa 0,0 mm 0,3 km/h (0 Bft) E-NE 74 0 min 2,8 C 4,8 C 6,4 km/h (2 Bft)
26.03.2019 00:30 4,8 C 87 % 1024,7 hPa 0,0 mm 1,2 km/h (1 Bft) NE 34 0 min 2,8 C 4,8 C 6,4 km/h (2 Bft)
26.03.2019 00:15 4,8 C 87 % 1024,6 hPa 0,0 mm 0,0 km/h (0 Bft) NE 44 0 min 2,8 C 4,8 C 0,0 km/h (0 Bft)
26.03.2019 00:00 4,9 C 87 % 1024,3 hPa 0,0 mm 0,0 km/h (0 Bft) NE 44 0 min 2,9 C 4,9 C 0,0 km/h (0 Bft)
25.03.2019 22:45 4,9 C 86 % 1023,6 hPa 0,0 mm 0,1 km/h (0 Bft) NE 37 0 min 2,8 C 4,9 C 3,2 km/h (1 Bft)
25.03.2019 22:30 4,9 C 86 % 1023,5 hPa 0,0 mm 4,1 km/h (1 Bft) NE 35 0 min 2,8 C 4,9 C 12,9 km/h (3 Bft)
25.03.2019 22:15 4,9 C 86 % 1023,2 hPa 0,0 mm 5,2 km/h (1 Bft) NE 39 0 min 2,8 C 3,9 C 12,9 km/h (3 Bft)
25.03.2019 22:00 4,9 C 86 % 1023,0 hPa 0,0 mm 5,6 km/h (1 Bft) E-NE 58 0 min 2,8 C 3,7 C 14,5 km/h (3 Bft)
25.03.2019 21:45 4,8 C 86 % 1022,7 hPa 0,0 mm 0,2 km/h (0 Bft) N-NE 32 0 min 2,7 C 4,8 C 3,2 km/h (1 Bft)
25.03.2019 21:30 4,7 C 86 % 1022,4 hPa 0,0 mm 0,0 km/h (0 Bft) NE 53 0 min 2,6 C 4,7 C 0,0 km/h (0 Bft)
25.03.2019 21:15 4,7 C 86 % 1022,2 hPa 0,0 mm 0,5 km/h (0 Bft) NE 53 0 min 2,6 C 4,7 C 8,0 km/h (2 Bft)
25.03.2019 21:00 4,6 C 86 % 1021,9 hPa 0,0 mm 0,0 km/h (0 Bft) N-NE 27 0 min 2,5 C 4,6 C 0,0 km/h (0 Bft)
25.03.2019 20:45 4,5 C 86 % 1021,8 hPa 0,0 mm 0,0 km/h (0 Bft) N-NE 13 0 min 2,4 C 4,5 C 0,0 km/h (0 Bft)
25.03.2019 20:30 4,5 C 85 % 1021,5 hPa 0,0 mm 2,3 km/h (1 Bft) N-NE 12 0 min 2,2 C 4,5 C 9,7 km/h (2 Bft)
25.03.2019 20:15 4,7 C 85 % 1021,4 hPa 0,0 mm 0,0 km/h (0 Bft) N 5 0 min 2,4 C 4,7 C 4,8 km/h (1 Bft)
25.03.2019 20:00 4,7 C 84 % 1021,2 hPa 0,0 mm 1,3 km/h (1 Bft) E-NE 61 0 min 2,2 C 4,7 C 8,0 km/h (2 Bft)
25.03.2019 19:45 4,7 C 84 % 1020,9 hPa 0,0 mm 3,7 km/h (1 Bft) E-NE 74 0 min 2,2 C 4,7 C 12,9 km/h (3 Bft)
25.03.2019 19:30 4,7 C 84 % 1020,5 hPa 0,0 mm 5,7 km/h (1 Bft) NE 42 0 min 2,2 C 3,5 C 12,9 km/h (3 Bft)
25.03.2019 19:15 4,8 C 84 % 1020,2 hPa 0,0 mm 9,1 km/h (2 Bft) E-NE 58 0 min 2,3 C 2,6 C 16,1 km/h (3 Bft)
25.03.2019 19:00 4,8 C 84 % 1019,8 hPa 0,0 mm 8,8 km/h (2 Bft) E-NE 59 0 min 2,3 C 2,7 C 16,1 km/h (3 Bft)
25.03.2019 18:45 4,8 C 84 % 1019,6 hPa 0,0 mm 10,8 km/h (2 Bft) E-NE 65 0 min 2,3 C 2,2 C 19,3 km/h (3 Bft)
25.03.2019 18:30 4,8 C 83 % 1019,3 hPa 0,0 mm 15,5 km/h (3 Bft) E-NE 69 0 min 2,2 C 1,4 C 25,7 km/h (4 Bft)
25.03.2019 18:15 4,8 C 84 % 1019,0 hPa 0,0 mm 17,0 km/h (3 Bft) E-NE 59 0 min 2,3 C 1,2 C 27,4 km/h (4 Bft)
25.03.2019 18:00 4,8 C 85 % 1018,8 hPa 0,0 mm 12,8 km/h (3 Bft) E-NE 59 0 min 2,5 C 1,9 C 24,1 km/h (4 Bft)
25.03.2019 17:45 4,7 C 84 % 1018,5 hPa 0,3 mm 15,4 km/h (3 Bft) E-NE 78 15 min 2,2 C 1,3 C 27,4 km/h (4 Bft)
25.03.2019 17:30 4,8 C 81 % 1018,3 hPa 0,0 mm 18,8 km/h (3 Bft) E-NE 61 0 min 1,8 C 1,0 C 33,8 km/h (5 Bft)
25.03.2019 17:15 4,8 C 81 % 1017,9 hPa 0,0 mm 20,6 km/h (4 Bft) SE 125 0 min 1,8 C 0,7 C 40,2 km/h (6 Bft)
25.03.2019 17:00 5,6 C 75 % 1017,6 hPa 0,0 mm 23,5 km/h (4 Bft) E-NE 69 0 min 1,5 C 1,4 C 46,7 km/h (6 Bft)
25.03.2019 16:45 6,8 C 71 % 1017,0 hPa 0,0 mm 18,7 km/h (3 Bft) NE 55 0 min 1,9 C 3,5 C 43,5 km/h (6 Bft)
25.03.2019 16:30 7,3 C 67 % 1017,0 hPa 0,0 mm 20,4 km/h (4 Bft) E-NE 66 0 min 1,6 C 3,9 C 37,0 km/h (5 Bft)
25.03.2019 16:15 7,4 C 67 % 1016,6 hPa 0,0 mm 16,6 km/h (3 Bft) E-NE 71 15 min 1,7 C 4,5 C 32,2 km/h (5 Bft)
25.03.2019 16:00 6,6 C 76 % 1016,6 hPa 0,0 mm 11,8 km/h (2 Bft) E-NE 66 15 min 2,7 C 4,2 C 22,5 km/h (4 Bft)
25.03.2019 15:45 6,2 C 78 % 1016,4 hPa 0,0 mm 8,8 km/h (2 Bft) N-NE 15 15 min 2,7 C 4,4 C 22,5 km/h (4 Bft)
25.03.2019 15:30 5,9 C 79 % 1016,4 hPa 0,0 mm 17,3 km/h (3 Bft) NE 34 0 min 2,5 C 2,5 C 40,2 km/h (6 Bft)
25.03.2019 15:15 6,9 C 72 % 1016,0 hPa 0,0 mm 18,7 km/h (3 Bft) NE 42 0 min 2,2 C 3,6 C 30,6 km/h (5 Bft)
25.03.2019 15:00 6,8 C 74 % 1015,7 hPa 0,0 mm 12,9 km/h (3 Bft) E-NE 66 15 min 2,5 C 4,3 C 24,1 km/h (4 Bft)
25.03.2019 14:45 6,5 C 79 % 1015,7 hPa 0,0 mm 12,3 km/h (3 Bft) E-NE 57 15 min 3,1 C 4,0 C 27,4 km/h (4 Bft)
25.03.2019 14:30 6,4 C 74 % 1015,8 hPa 0,0 mm 22,4 km/h (4 Bft) N-NE 20 0 min 2,1 C 2,6 C 43,5 km/h (6 Bft)
25.03.2019 14:15 6,6 C 74 % 1015,2 hPa 0,0 mm 19,5 km/h (3 Bft) E-NE 63 0 min 2,3 C 3,1 C 37,0 km/h (5 Bft)
25.03.2019 14:00 6,1 C 79 % 1015,1 hPa 0,0 mm 20,1 km/h (4 Bft) E-NE 67 0 min 2,7 C 2,4 C 37,0 km/h (5 Bft)
25.03.2019 13:45 5,8 C 79 % 1014,9 hPa 0,0 mm 23,9 km/h (4 Bft) E-NE 70 0 min 2,4 C 1,7 C 43,5 km/h (6 Bft)
25.03.2019 13:30 5,8 C 81 % 1014,9 hPa 0,0 mm 23,1 km/h (4 Bft) NE 49 0 min 2,8 C 1,7 C 41,8 km/h (6 Bft)
25.03.2019 13:15 6,5 C 77 % 1014,7 hPa 0,0 mm 18,5 km/h (3 Bft) NE 51 15 min 2,8 C 3,1 C 38,6 km/h (5 Bft)
25.03.2019 13:00 5,6 C 81 % 1014,8 hPa 0,0 mm 16,1 km/h (3 Bft) N-NE 30 0 min 2,6 C 2,3 C 33,8 km/h (5 Bft)
25.03.2019 12:45 5,3 C 83 % 1014,7 hPa 0,0 mm 18,8 km/h (3 Bft) NE 34 0 min 2,7 C 1,6 C 37,0 km/h (5 Bft)
25.03.2019 12:30 5,1 C 84 % 1014,6 hPa 0,3 mm 21,8 km/h (4 Bft) N-NE 14 0 min 2,6 C 1,0 C 43,5 km/h (6 Bft)
25.03.2019 12:15 5,9 C 81 % 1014,5 hPa 0,0 mm 17,7 km/h (3 Bft) NE 39 0 min 2,9 C 2,5 C 40,2 km/h (6 Bft)
25.03.2019 12:00 5,7 C 80 % 1014,5 hPa 0,0 mm 14,7 km/h (3 Bft) NE 42 0 min 2,5 C 2,7 C 30,6 km/h (5 Bft)
25.03.2019 11:45 5,4 C 84 % 1014,5 hPa 0,0 mm 12,5 km/h (3 Bft) N-NE 30 15 min 2,9 C 2,7 C 29,0 km/h (5 Bft)
25.03.2019 11:30 4,5 C 87 % 1014,7 hPa 0,0 mm 12,5 km/h (3 Bft) NE 34 0 min 2,5 C 1,6 C 24,1 km/h (4 Bft)
25.03.2019 11:15 4,7 C 83 % 1014,6 hPa 0,3 mm 19,7 km/h (3 Bft) N-NE 24 0 min 2,1 C 0,7 C 43,5 km/h (6 Bft)
25.03.2019 11:00 5,4 C 78 % 1014,4 hPa 0,0 mm 14,5 km/h (3 Bft) N 360 0 min 1,9 C 2,3 C 38,6 km/h (5 Bft)
25.03.2019 10:45 5,4 C 77 % 1014,3 hPa 0,0 mm 17,7 km/h (3 Bft) N-NE 19 0 min 1,7 C 1,9 C 33,8 km/h (5 Bft)
25.03.2019 10:30 5,4 C 77 % 1014,3 hPa 0,0 mm 16,4 km/h (3 Bft) N-NE 17 0 min 1,7 C 2,0 C 33,8 km/h (5 Bft)
25.03.2019 10:15 5,7 C 75 % 1014,4 hPa 0,0 mm 7,9 km/h (2 Bft) N 355 0 min 1,6 C 4,0 C 22,5 km/h (4 Bft)
25.03.2019 10:00 5,3 C 77 % 1014,4 hPa 0,0 mm 7,2 km/h (2 Bft) N-NE 22 0 min 1,6 C 3,7 C 22,5 km/h (4 Bft)
_ Min-Heure 04:45 16:15 10:30 - 20:15 - - - 08:30 07:00 20:45
Minimum _ 4,1 C 67 % 1014,3 hPa - 0,0 km/h (0 Bft) - - - -0,2 C 0,4 C 0,0 km/h (0 Bft)
_ Max-Heure 16:15 04:30 08:45 11:15 13:45 - - 11:45 14:45 22:30 17:00
Maximum _ 7,4 C 89 % 1027,0 hPa 0,3 mm 23,9 km/h
E-NE (4 Bft)
- - 15 min 3,1 C 4,9 C 46,7 km/h
E-NE (6 Bft)
Moyenne _ 5,0 C 82 % 1020,9 hPa #0,8 mm 9,5 km/h (2 Bft) E-NE - #15 min. 2,1 C 3,1 C 21,2 km/h (4 Bft)